Torna al catalogo

GEESAT 6-02

AttivoNavigazioneLEO
NORAD 65714·PAYLOAD·🇨🇳 China

Lanciato Sep 24, 2025 da Yellow Sea Launch Area

Loading…

Prossimi Passaggi (prossime 24 ore)

TLE

AggiornatoSource: Space-Track

Epoca: Sep 14, 2026, 00:54 UTC

1 65714U 25214C   26257.03796230  .00001196  00000-0  17076-3 0  9990
2 65714  49.9834 256.7425 0009932 198.1382 161.9203 14.83601167 52699

Traccia GEESAT 6-02 in tempo reale con AllMySat

Download on the App Store